Location: Observatory
(52.1446°N, 0.4624°W)
Time: 23:23:41
(UTC+01:00)

ISS - Visible Passes

Search period start: 25 May 2018 00:00
Search period end: 04 June 2018 00:00
Orbit: 402 x 407 km, 51.6° (Epoch: 26 May)

Date Brightness Start Highest point End Pass type
(mag) Time Alt. Az. Time Alt. Az. Time Alt. Az.
25 May -3.9 01:04:17 10° W 01:07:31 60° SSW 01:08:17 44° SE visible
25 May -3.9 22:35:39 10° WSW 22:38:55 74° S 22:42:11 10° E visible
26 May -4.0 00:12:06 10° W 00:15:22 74° S 00:17:15 23° ESE visible
26 May -1.9 01:48:43 10° W 01:49:51 18° WSW 01:49:51 18° WSW visible
26 May -3.9 23:19:54 10° W 23:23:11 82° S 23:26:26 10° E visible
27 May -3.2 00:56:24 10° W 00:59:03 37° SW 00:59:03 37° SW visible
27 May -3.9 22:27:41 10° W 22:30:58 84° S 22:34:15 10° E visible
28 May -3.8 00:04:10 10° W 00:07:22 55° SSW 00:08:20 37° SE visible
28 May -3.9 23:11:55 10° W 23:15:12 69° SSW 23:17:40 16° ESE visible
29 May -2.2 00:48:37 10° W 00:50:18 21° WSW 00:50:18 21° WSW visible
29 May -3.9 22:19:41 10° W 22:22:59 80° S 22:26:15 10° E visible
29 May -3.2 23:56:13 10° W 23:59:16 35° SSW 23:59:41 34° S visible
30 May -3.6 23:03:56 10° W 23:07:06 49° SSW 23:09:05 20° SE visible
31 May -1.4 00:41:11 10° WSW 00:41:43 12° WSW 00:41:43 12° WSW visible
31 May -3.8 22:11:38 10° W 22:14:54 64° SSW 22:18:09 10° ESE visible
31 May -2.4 23:48:26 10° W 23:51:01 22° SSW 23:51:09 22° SSW visible
01 Jun -2.8 22:55:56 10° W 22:58:54 31° SSW 23:00:36 19° SSE visible
02 Jun -3.3 22:03:35 10° W 22:06:44 44° SSW 22:09:51 10° SE visible
02 Jun -1.5 23:41:09 10° WSW 23:42:35 12° SW 23:42:43 12° SW visible
03 Jun -2.0 22:48:09 10° W 22:50:33 19° SW 22:52:13 13° S visible
